����,���ϕ���(m/s),���ϕ���,�ő�u�ԕ���(m/s),�ő啗��������,�C��(��),���x(%),10���Ԉړ��ώZ�J��(mm),1���Ԉړ��ώZ�J��(mm),���J��(mm),�݌v�J��(mm),����(���ώZ)(MJ/m2),����(���ώZ)(min),���n�C��(hPa),�C�ʋC��(hPa)
2020-09-21T00:00:00+09:00,1.4,�k�k��,2.3,�k��,19.2,82.4,0,0,0,0,13.37,309,1002.7,1016.4
2020-09-21T00:01:00+09:00,1.4,�k�k��,2.3,�k��,19.1,82.1,0,0,0,0,0,0,1002.7,1016.4
2020-09-21T00:02:00+09:00,1.3,�k�k��,2.2,�k�k��,19.1,82.3,0,0,0,0,0,0,1002.7,1016.4
2020-09-21T00:03:00+09:00,1.3,�k�k��,2.2,�k�k��,19.3,82.8,0,0,0,0,0,0,1002.7,1016.4
2020-09-21T00:04:00+09:00,1.2,�k�k��,2.2,�k�k��,19.3,82.7,0,0,0,0,0,0,1002.7,1016.4
2020-09-21T00:05:00+09:00,1.1,�k�k��,2.2,�k�k��,19.4,82.7,0,0,0,0,0,0,1002.7,1016.3
2020-09-21T00:06:00+09:00,1,�k�k��,2.2,�k�k��,19.3,82.5,0,0,0,0,0,0,1002.7,1016.4
2020-09-21T00:07:00+09:00,1,�k�k��,2.2,�k�k��,19.2,82.1,0,0,0,0,0,0,1002.6,1016.3
2020-09-21T00:08:00+09:00,0.9,�k�k��,1.6,�k�k��,19,82.4,0,0,0,0,0,0,1002.6,1016.3
2020-09-21T00:09:00+09:00,0.9,�k�k��,1.6,�k�k��,19,83,0,0,0,0,0,0,1002.6,1016.3
2020-09-21T00:10:00+09:00,0.8,�k�k��,1.6,�k�k��,19,83.5,0,0,0,0,0,0,1002.6,1016.3
2020-09-21T00:11:00+09:00,0.8,�k�k��,1.6,�k�k��,19,83.6,0,0,0,0,0,0,1002.6,1016.3
2020-09-21T00:12:00+09:00,0.8,�k�k��,1.7,�k�k��,19,83.8,0,0,0,0,0,0,1002.6,1016.3
2020-09-21T00:13:00+09:00,0.8,�k�k��,1.7,�k�k��,19,83.7,0,0,0,0,0,0,1002.6,1016.3
2020-09-21T00:14:00+09:00,0.9,�k�k��,1.7,�k�k��,18.9,83.5,0,0,0,0,0,0,1002.6,1016.3
2020-09-21T00:15:00+09:00,0.9,�k�k��,1.7,�k�k��,18.9,83.5,0,0,0,0,0,0,1002.6,1016.3
2020-09-21T00:16:00+09:00,0.9,�k�k��,1.7,�k�k��,18.9,83.7,0,0,0,0,0,0,1002.7,1016.4
2020-09-21T00:17:00+09:00,0.9,�k�k��,1.7,�k�k��,18.9,83.6,0,0,0,0,0,0,1002.7,1016.4
2020-09-21T00:18:00+09:00,0.9,�k�k��,1.7,�k�k��,18.9,83.9,0,0,0,0,0,0,1002.7,1016.4
2020-09-21T00:19:00+09:00,0.8,�k�k��,1.7,�k�k��,19,83.9,0,0,0,0,0,0,1002.6,1016.3
2020-09-21T00:20:00+09:00,0.7,�k�k��,1.7,�k�k��,19.1,83.9,0,0,0,0,0,0,1002.6,1016.3
2020-09-21T00:21:00+09:00,0.7,�k�k��,1.7,�k�k��,19.1,83.5,0,0,0,0,0,0,1002.6,1016.3
2020-09-21T00:22:00+09:00,0.6,�k,1.7,�k�k��,18.9,83.2,0,0,0,0,0,0,1002.6,1016.3
2020-09-21T00:23:00+09:00,0.5,�k,1.5,�k�k��,18.9,83.4,0,0,0,0,0,0,1002.6,1016.3
2020-09-21T00:24:00+09:00,0.4,�k,1.3,�k��,18.9,83.8,0,0,0,0,0,0,1002.6,1016.3
2020-09-21T00:25:00+09:00,0.4,�k,1.2,�k��,18.8,83.9,0,0,0,0,0,0,1002.6,1016.3
2020-09-21T00:26:00+09:00,0.4,�k,1.2,�k��,18.8,84,0,0,0,0,0,0,1002.5,1016.2
2020-09-21T00:27:00+09:00,0.4,�k�k��,1.2,�k��,18.8,84.2,0,0,0,0,0,0,1002.5,1016.2
2020-09-21T00:28:00+09:00,0.5,�k�k��,1.6,�k,18.9,84.4,0,0,0,0,0,0,1002.5,1016.2
2020-09-21T00:29:00+09:00,0.5,�k�k��,1.6,�k,18.9,84.4,0,0,0,0,0,0,1002.5,1016.2
2020-09-21T00:30:00+09:00,0.6,�k�k��,1.6,�k,18.8,84,0,0,0,0,0,0,1002.5,1016.2
2020-09-21T00:31:00+09:00,0.6,�k�k��,1.6,�k,18.9,84.1,0,0,0,0,0,0,1002.5,1016.2
2020-09-21T00:32:00+09:00,0.7,�k�k��,1.6,�k,18.8,83.7,0,0,0,0,0,0,1002.5,1016.2
2020-09-21T00:33:00+09:00,0.7,�k�k��,1.6,�k,18.8,83.7,0,0,0,0,0,0,1002.5,1016.2
2020-09-21T00:34:00+09:00,0.7,�k�k��,1.6,�k,18.8,83.6,0,0,0,0,0,0,1002.5,1016.2
2020-09-21T00:35:00+09:00,0.7,�k,1.6,�k,18.8,83.7,0,0,0,0,0,0,1002.4,1016.1
2020-09-21T00:36:00+09:00,0.6,�k,1.6,�k,18.9,83.7,0,0,0,0,0,0,1002.4,1016.1
2020-09-21T00:37:00+09:00,0.6,�k,1.6,�k,18.9,83.4,0,0,0,0,0,0,1002.4,1016.1
2020-09-21T00:38:00+09:00,0.6,�k,1.4,�k��,18.9,83.3,0,0,0,0,0,0,1002.4,1016.1
2020-09-21T00:39:00+09:00,0.7,�k,1.7,�k�k��,18.9,83,0,0,0,0,0,0,1002.4,1016.1
2020-09-21T00:40:00+09:00,0.7,�k,1.7,�k�k��,18.8,83,0,0,0,0,0,0,1002.5,1016.2
2020-09-21T00:41:00+09:00,0.8,�k,1.7,�k�k��,18.8,82.9,0,0,0,0,0,0,1002.5,1016.2
2020-09-21T00:42:00+09:00,0.8,�k,1.7,�k�k��,18.9,83.4,0,0,0,0,0,0,1002.5,1016.2
2020-09-21T00:43:00+09:00,0.8,�k�k��,1.7,�k�k��,18.8,82.8,0,0,0,0,0,0,1002.5,1016.2
2020-09-21T00:44:00+09:00,0.9,�k�k��,1.7,�k�k��,18.9,82.9,0,0,0,0,0,0,1002.6,1016.3
2020-09-21T00:45:00+09:00,1,�k�k��,1.7,�k�k��,18.9,82.1,0,0,0,0,0,0,1002.6,1016.3
2020-09-21T00:46:00+09:00,1,�k�k��,1.7,�k�k��,18.8,81.6,0,0,0,0,0,0,1002.5,1016.2
2020-09-21T00:47:00+09:00,1,�k�k��,1.7,�k�k��,18.7,81.3,0,0,0,0,0,0,1002.5,1016.2
2020-09-21T00:48:00+09:00,1,�k�k��,1.7,�k�k��,18.8,81.9,0,0,0,0,0,0,1002.5,1016.2
2020-09-21T00:49:00+09:00,1,�k�k��,1.8,���k��,18.8,81.8,0,0,0,0,0,0,1002.4,1016.1
2020-09-21T00:50:00+09:00,1,�k�k��,1.8,���k��,18.7,81.5,0,0,0,0,0,0,1002.4,1016.1
2020-09-21T00:51:00+09:00,0.9,�k�k��,1.8,���k��,18.6,81.6,0,0,0,0,0,0,1002.3,1016
2020-09-21T00:52:00+09:00,1,�k��,2,�k��,18.9,82.4,0,0,0,0,0,0,1002.3,1016
2020-09-21T00:53:00+09:00,1,�k��,2.2,�k�k��,18.9,81.6,0,0,0,0,0,0,1002.3,1016
2020-09-21T00:54:00+09:00,1.1,�k��,3.5,�k,18.9,80.9,0,0,0,0,0,0,1002.3,1016
2020-09-21T00:55:00+09:00,1.2,�k�k��,3.5,�k,19,79.6,0,0,0,0,0,0,1002.4,1016.1
2020-09-21T00:56:00+09:00,1.2,�k�k��,3.5,�k,19.1,78.4,0,0,0,0,0,0,1002.4,1016.1
2020-09-21T00:57:00+09:00,1.2,�k�k��,3.5,�k,19.1,77.7,0,0,0,0,0,0,1002.4,1016.1
2020-09-21T00:58:00+09:00,1.2,�k�k��,3.5,�k,19,77.6,0,0,0,0,0,0,1002.4,1016.1
2020-09-21T00:59:00+09:00,1.1,�k�k��,3.5,�k,19.1,78.2,0,0,0,0,0,0,1002.4,1016.1
2020-09-21T01:00:00+09:00,1.1,�k�k��,3.5,�k,18.8,78,0,0,0,0,0,0,1002.4,1016.1
2020-09-21T01:01:00+09:00,1,�k�k��,3.5,�k,18.8,78.7,0,0,0,0,0,0,1002.5,1016.2
2020-09-21T01:02:00+09:00,1.1,�k�k��,3.5,�k,18.8,79.5,0,0,0,0,0,0,1002.5,1016.2
2020-09-21T01:03:00+09:00,0.9,�k�k��,3.5,�k,18.7,79.2,0,0,0,0,0,0,1002.5,1016.2
2020-09-21T01:04:00+09:00,0.8,�k�k��,2.4,�k�k��,18.7,79.3,0,0,0,0,0,0,1002.4,1016.1
2020-09-21T01:05:00+09:00,0.8,�k��,2,�k�k��,18.5,79.8,0,0,0,0,0,0,1002.4,1016.1
2020-09-21T01:06:00+09:00,0.9,�k��,2,�k�k��,18.5,80.3,0,0,0,0,0,0,1002.4,1016.1
2020-09-21T01:07:00+09:00,0.9,�k��,2,�k�k��,18.6,80.9,0,0,0,0,0,0,1002.5,1016.2
2020-09-21T01:08:00+09:00,1,�k��,2,�k�k��,18.7,80.8,0,0,0,0,0,0,1002.5,1016.2
2020-09-21T01:09:00+09:00,1,�k��,2,�k�k��,18.8,80.6,0,0,0,0,0,0,1002.5,1016.2
2020-09-21T01:10:00+09:00,1.1,�k��,2,�k�k��,18.7,79.9,0,0,0,0,0,0,1002.5,1016.2
2020-09-21T01:11:00+09:00,1.1,�k��,2,�k�k��,18.7,79.4,0,0,0,0,0,0,1002.5,1016.2
2020-09-21T01:12:00+09:00,1.1,�k��,2,�k��,18.8,79.6,0,0,0,0,0,0,1002.5,1016.2
2020-09-21T01:13:00+09:00,1.2,�k��,2.1,�k��,18.7,79,0,0,0,0,0,0,1002.5,1016.2
2020-09-21T01:14:00+09:00,1.2,�k��,2.1,�k��,18.7,79,0,0,0,0,0,0,1002.6,1016.3
2020-09-21T01:15:00+09:00,1.2,�k��,2.1,�k��,18.7,79.2,0,0,0,0,0,0,1002.6,1016.3
2020-09-21T01:16:00+09:00,1.2,�k��,2.1,�k��,18.6,79,0,0,0,0,0,0,1002.6,1016.3
2020-09-21T01:17:00+09:00,1.2,�k��,2.1,�k��,18.7,79.5,0,0,0,0,0,0,1002.6,1016.3
2020-09-21T01:18:00+09:00,1.2,�k��,2.1,�k��,18.7,79.1,0,0,0,0,0,0,1002.6,1016.3
2020-09-21T01:19:00+09:00,1.2,�k��,2.1,�k��,18.7,78.8,0,0,0,0,0,0,1002.6,1016.3
2020-09-21T01:20:00+09:00,1.2,�k��,2.1,�k��,18.7,78.6,0,0,0,0,0,0,1002.6,1016.3
2020-09-21T01:21:00+09:00,1.2,�k��,2.1,�k��,18.7,78.8,0,0,0,0,0,0,1002.6,1016.3
2020-09-21T01:22:00+09:00,1.2,�k��,2.1,�k��,18.7,78.6,0,0,0,0,0,0,1002.6,1016.3
2020-09-21T01:23:00+09:00,1.1,�k��,2,�k��,18.6,78.6,0,0,0,0,0,0,1002.7,1016.4
2020-09-21T01:24:00+09:00,1.1,�k��,2,�k��,18.6,79.2,0,0,0,0,0,0,1002.7,1016.4
2020-09-21T01:25:00+09:00,1.1,�k��,2,�k��,18.6,79.2,0,0,0,0,0,0,1002.7,1016.4
2020-09-21T01:26:00+09:00,1.1,�k��,2,�k��,18.7,79.4,0,0,0,0,0,0,1002.7,1016.4
2020-09-21T01:27:00+09:00,1.1,�k��,2,�k��,18.4,78.6,0,0,0,0,0,0,1002.7,1016.4
2020-09-21T01:28:00+09:00,1.1,�k��,2,�k��,18.5,79.5,0,0,0,0,0,0,1002.7,1016.4
2020-09-21T01:29:00+09:00,1,�k��,1.9,�k��,18.7,80,0,0,0,0,0,0,1002.8,1016.5
2020-09-21T01:30:00+09:00,1,�k��,1.8,�k��,18.7,79.5,0,0,0,0,0,0,1002.8,1016.5
2020-09-21T01:31:00+09:00,1,�k��,1.8,�k��,18.5,79,0,0,0,0,0,0,1002.8,1016.5
2020-09-21T01:32:00+09:00,1,�k��,1.8,�k��,18.6,78.9,0,0,0,0,0,0,1002.8,1016.5
2020-09-21T01:33:00+09:00,1,�k��,1.8,�k��,18.6,79.1,0,0,0,0,0,0,1002.9,1016.6
2020-09-21T01:34:00+09:00,1,�k��,1.7,�k��,18.5,78.8,0,0,0,0,0,0,1002.9,1016.6
2020-09-21T01:35:00+09:00,1.1,�k��,1.7,�k��,18.5,79,0,0,0,0,0,0,1002.8,1016.5
2020-09-21T01:36:00+09:00,1.1,�k��,1.7,�k��,18.6,79,0,0,0,0,0,0,1002.8,1016.5
2020-09-21T01:37:00+09:00,1,�k��,1.7,�k��,18.6,78.7,0,0,0,0,0,0,1002.8,1016.5
2020-09-21T01:38:00+09:00,1.1,�k��,1.7,�k��,18.7,78.6,0,0,0,0,0,0,1002.8,1016.5
2020-09-21T01:39:00+09:00,1.2,�k��,1.7,�k��,18.8,78.8,0,0,0,0,0,0,1002.8,1016.5
2020-09-21T01:40:00+09:00,1.2,�k��,1.8,�k�k��,18.8,78.3,0,0,0,0,0,0,1002.8,1016.5
2020-09-21T01:41:00+09:00,1.2,�k�k��,1.8,�k�k��,18.9,78.2,0,0,0,0,0,0,1002.8,1016.5
2020-09-21T01:42:00+09:00,1.3,�k�k��,1.8,�k�k��,18.6,77.6,0,0,0,0,0,0,1002.8,1016.5
2020-09-21T01:43:00+09:00,1.4,�k�k��,1.8,�k�k��,18.6,77.8,0,0,0,0,0,0,1002.8,1016.5
2020-09-21T01:44:00+09:00,1.3,�k�k��,1.9,�k�k��,18.5,78.1,0,0,0,0,0,0,1002.8,1016.5
2020-09-21T01:45:00+09:00,1.3,�k�k��,1.9,�k�k��,18.6,78.5,0,0,0,0,0,0,1002.8,1016.5
2020-09-21T01:46:00+09:00,1.3,�k�k��,1.9,�k�k��,18.6,78.7,0,0,0,0,0,0,1002.8,1016.5
2020-09-21T01:47:00+09:00,1.3,�k�k��,1.9,�k�k��,18.6,78.4,0,0,0,0,0,0,1002.8,1016.5
2020-09-21T01:48:00+09:00,1.4,�k�k��,2.2,�k��,18.5,78.1,0,0,0,0,0,0,1002.8,1016.5
2020-09-21T01:49:00+09:00,1.4,�k�k��,2.2,�k��,18.5,78.5,0,0,0,0,0,0,1002.8,1016.5
2020-09-21T01:50:00+09:00,1.4,�k�k��,2.2,�k��,18.7,79,0,0,0,0,0,0,1002.8,1016.5
2020-09-21T01:51:00+09:00,1.4,�k�k��,2.2,�k��,18.7,78.5,0,0,0,0,0,0,1002.8,1016.5
2020-09-21T01:52:00+09:00,1.4,�k�k��,2.2,�k��,18.5,78.2,0,0,0,0,0,0,1002.8,1016.5
2020-09-21T01:53:00+09:00,1.4,�k�k��,2.2,�k��,18.6,78.5,0,0,0,0,0,0,1002.7,1016.4
2020-09-21T01:54:00+09:00,1.3,�k�k��,2.2,�k��,18.5,78.4,0,0,0,0,0,0,1002.7,1016.4
2020-09-21T01:55:00+09:00,1.3,�k��,2.2,�k��,18.5,78.5,0,0,0,0,0,0,1002.7,1016.4
2020-09-21T01:56:00+09:00,1.3,�k�k��,2.2,�k��,18.5,78.4,0,0,0,0,0,0,1002.7,1016.4
2020-09-21T01:57:00+09:00,1.2,�k�k��,2.2,�k��,18.4,78.6,0,0,0,0,0,0,1002.6,1016.3
2020-09-21T01:58:00+09:00,1.1,�k�k��,1.9,�k��,18.2,78.8,0,0,0,0,0,0,1002.6,1016.3
2020-09-21T01:59:00+09:00,1,�k�k��,1.9,�k��,18.2,79.6,0,0,0,0,0,0,1002.6,1016.3
2020-09-21T02:00:00+09:00,0.9,�k�k��,1.8,�k��,18.2,80,0,0,0,0,0,0,1002.6,1016.3
2020-09-21T02:01:00+09:00,0.8,�k�k��,1.8,�k��,18.1,79.9,0,0,0,0,0,0,1002.6,1016.3
2020-09-21T02:02:00+09:00,0.7,�k�k��,1.8,�k��,18.2,80.2,0,0,0,0,0,0,1002.6,1016.3
2020-09-21T02:03:00+09:00,0.7,�k�k��,1.6,�k��,18.2,80.2,0,0,0,0,0,0,1002.6,1016.3
2020-09-21T02:04:00+09:00,0.7,�k�k��,1.5,�k�k��,18.2,80.1,0,0,0,0,0,0,1002.6,1016.3
2020-09-21T02:05:00+09:00,0.7,�k�k��,1.6,�k��,18.1,80,0,0,0,0,0,0,1002.7,1016.4
2020-09-21T02:06:00+09:00,0.8,�k�k��,1.6,�k��,18.1,80.5,0,0,0,0,0,0,1002.7,1016.4
2020-09-21T02:07:00+09:00,0.8,�k�k��,1.6,�k��,18,80.4,0,0,0,0,0,0,1002.7,1016.4
2020-09-21T02:08:00+09:00,0.8,�k�k��,1.6,�k��,18.1,80.9,0,0,0,0,0,0,1002.8,1016.5
2020-09-21T02:09:00+09:00,0.8,�k�k��,1.6,�k��,18,80.7,0,0,0,0,0,0,1002.8,1016.5
2020-09-21T02:10:00+09:00,0.7,�k�k��,1.6,�k��,18.1,80.9,0,0,0,0,0,0,1002.7,1016.4
2020-09-21T02:11:00+09:00,0.7,�k�k��,1.6,�k��,18.1,80.6,0,0,0,0,0,0,1002.7,1016.4
2020-09-21T02:12:00+09:00,0.7,�k�k��,1.6,�k��,18.2,80.6,0,0,0,0,0,0,1002.7,1016.4
2020-09-21T02:13:00+09:00,0.6,�k�k��,1.6,�k��,18.1,80.1,0,0,0,0,0,0,1002.7,1016.4
2020-09-21T02:14:00+09:00,0.6,�k�k��,1.6,�k��,18.1,80.3,0,0,0,0,0,0,1002.7,1016.4
2020-09-21T02:15:00+09:00,0.5,�k�k��,1.5,�k��,18.1,80.7,0,0,0,0,0,0,1002.7,1016.4
2020-09-21T02:16:00+09:00,0.4,�k,1.1,�k�k��,18,80.9,0,0,0,0,0,0,1002.7,1016.4
2020-09-21T02:17:00+09:00,0.4,�k,1.2,�k��,17.9,80.8,0,0,0,0,0,0,1002.7,1016.4
2020-09-21T02:18:00+09:00,0.5,�k,1.2,�k��,17.8,80.8,0,0,0,0,0,0,1002.8,1016.5
2020-09-21T02:19:00+09:00,0.4,�k,1.2,�k��,18,81.7,0,0,0,0,0,0,1002.9,1016.6
2020-09-21T02:20:00+09:00,0.5,�k,1.2,�k��,18,81.4,0,0,0,0,0,0,1002.9,1016.6
2020-09-21T02:21:00+09:00,0.6,�k,1.2,�k��,17.9,81.1,0,0,0,0,0,0,1002.9,1016.6
2020-09-21T02:22:00+09:00,0.6,�k,1.2,�k��,17.8,81.2,0,0,0,0,0,0,1002.9,1016.6
2020-09-21T02:23:00+09:00,0.6,�k,1.2,�k��,17.8,81.4,0,0,0,0,0,0,1003,1016.7
2020-09-21T02:24:00+09:00,0.7,�k,1.4,�k�k��,17.9,81.8,0,0,0,0,0,0,1003,1016.7
2020-09-21T02:25:00+09:00,0.7,�k�k��,1.6,�k��,17.9,81.4,0,0,0,0,0,0,1003,1016.7
2020-09-21T02:26:00+09:00,0.8,�k�k��,1.6,�k��,17.9,81.2,0,0,0,0,0,0,1003,1016.7
2020-09-21T02:27:00+09:00,0.8,�k�k��,1.6,�k��,17.9,81,0,0,0,0,0,0,1003,1016.7
2020-09-21T02:28:00+09:00,0.8,�k�k��,1.6,�k��,18,81.2,0,0,0,0,0,0,1003,1016.7
2020-09-21T02:29:00+09:00,0.8,�k�k��,1.6,�k��,17.9,80.9,0,0,0,0,0,0,1003,1016.7
2020-09-21T02:30:00+09:00,0.9,�k�k��,1.8,�k,18,80.9,0,0,0,0,0,0,1003,1016.7
2020-09-21T02:31:00+09:00,1,�k�k��,2,�k��,18.1,81.1,0,0,0,0,0,0,1002.9,1016.6
2020-09-21T02:32:00+09:00,1,�k�k��,2,�k��,18,81.1,0,0,0,0,0,0,1002.9,1016.6
2020-09-21T02:33:00+09:00,1,�k�k��,2,�k��,17.8,80.4,0,0,0,0,0,0,1002.8,1016.5
2020-09-21T02:34:00+09:00,1,�k,2,�k��,17.8,80.9,0,0,0,0,0,0,1002.7,1016.4
2020-09-21T02:35:00+09:00,1,�k,2,�k��,17.6,81.3,0,0,0,0,0,0,1002.7,1016.4
2020-09-21T02:36:00+09:00,1,�k,2,�k��,17.6,81.5,0,0,0,0,0,0,1002.6,1016.3
2020-09-21T02:37:00+09:00,1,�k,2,�k��,17.7,82.3,0,0,0,0,0,0,1002.6,1016.3
2020-09-21T02:38:00+09:00,1,�k,2,�k��,17.6,82.6,0,0,0,0,0,0,1002.7,1016.4
2020-09-21T02:39:00+09:00,1,�k,2.3,�k�k��,17.6,82.3,0,0,0,0,0,0,1002.7,1016.4
2020-09-21T02:40:00+09:00,1.1,�k,2.6,�k,17.6,82.7,0,0,0,0,0,0,1002.7,1016.4
2020-09-21T02:41:00+09:00,1.2,�k,2.9,�k�k��,17.5,82.6,0,0,0,0,0,0,1002.8,1016.5
2020-09-21T02:42:00+09:00,1.2,�k,2.9,�k�k��,17.5,83.1,0,0,0,0,0,0,1002.8,1016.5
2020-09-21T02:43:00+09:00,1.4,�k,2.9,�k�k��,17.5,83.4,0,0,0,0,0,0,1002.8,1016.5
2020-09-21T02:44:00+09:00,1.4,�k�k��,2.9,�k�k��,17.4,83.1,0,0,0,0,0,0,1002.8,1016.5
2020-09-21T02:45:00+09:00,1.4,�k�k��,2.9,�k�k��,17.4,83.4,0,0,0,0,0,0,1002.8,1016.5
2020-09-21T02:46:00+09:00,1.5,�k�k��,2.9,�k�k��,17.4,83.6,0,0,0,0,0,0,1002.8,1016.5
2020-09-21T02:47:00+09:00,1.5,�k�k��,2.9,�k�k��,17.4,83.4,0,0,0,0,0,0,1002.8,1016.5
2020-09-21T02:48:00+09:00,1.5,�k�k��,2.9,�k�k��,17.4,83.2,0,0,0,0,0,0,1002.8,1016.5
2020-09-21T02:49:00+09:00,1.5,�k�k��,2.9,�k�k��,17.5,83.5,0,0,0,0,0,0,1002.8,1016.5
2020-09-21T02:50:00+09:00,1.4,�k�k��,2.9,�k�k��,17.6,83.6,0,0,0,0,0,0,1002.8,1016.5
2020-09-21T02:51:00+09:00,1.2,�k�k��,2.6,�k�k��,17.4,83.1,0,0,0,0,0,0,1002.8,1016.5
2020-09-21T02:52:00+09:00,1.1,�k�k��,2.6,�k�k��,17.4,83.2,0,0,0,0,0,0,1002.8,1016.5
2020-09-21T02:53:00+09:00,1,�k�k��,2.2,�k��,17.3,83.1,0,0,0,0,0,0,1002.8,1016.5
2020-09-21T02:54:00+09:00,0.9,�k�k��,2,�k�k��,17.3,83.2,0,0,0,0,0,0,1002.8,1016.5
2020-09-21T02:55:00+09:00,0.8,�k,2,�k�k��,17.2,83.4,0,0,0,0,0,0,1002.8,1016.6
2020-09-21T02:56:00+09:00,0.7,�k,1.7,�k�k��,17.2,83.7,0,0,0,0,0,0,1002.8,1016.6
2020-09-21T02:57:00+09:00,0.5,�k,1.6,�k�k��,17.2,84.2,0,0,0,0,0,0,1002.8,1016.6
2020-09-21T02:58:00+09:00,0.5,�k,1.6,�k�k��,17.2,84.6,0,0,0,0,0,0,1002.8,1016.6
2020-09-21T02:59:00+09:00,0.4,�k,1.6,�k�k��,17,84.2,0,0,0,0,0,0,1002.8,1016.6
2020-09-21T03:00:00+09:00,0.4,�k�k��,1.6,�k�k��,17,84.4,0,0,0,0,0,0,1002.8,1016.6
2020-09-21T03:01:00+09:00,0.4,�k�k��,1.6,�k�k��,17,85,0,0,0,0,0,0,1002.8,1016.6
2020-09-21T03:02:00+09:00,0.4,�k�k��,1.6,�k�k��,17,85.4,0,0,0,0,0,0,1002.7,1016.5
2020-09-21T03:03:00+09:00,0.3,�k�k��,1.5,�k,17.1,85.4,0,0,0,0,0,0,1002.7,1016.5
2020-09-21T03:04:00+09:00,0.4,�k�k��,1.8,�k,17.2,85.9,0,0,0,0,0,0,1002.7,1016.5
2020-09-21T03:05:00+09:00,0.4,�k�k��,1.8,�k,17.1,85.5,0,0,0,0,0,0,1002.7,1016.5
2020-09-21T03:06:00+09:00,0.5,�k�k��,1.8,�k,17,84.9,0,0,0,0,0,0,1002.7,1016.5
2020-09-21T03:07:00+09:00,0.6,�k�k��,1.8,�k,17,85.1,0,0,0,0,0,0,1002.6,1016.4
2020-09-21T03:08:00+09:00,0.6,�k�k��,1.8,�k,17,85.6,0,0,0,0,0,0,1002.6,1016.4
2020-09-21T03:09:00+09:00,0.6,�k�k��,1.8,�k,17.1,85.9,0,0,0,0,0,0,1002.7,1016.5
2020-09-21T03:10:00+09:00,0.7,�k�k��,1.8,�k,17,85.6,0,0,0,0,0,0,1002.7,1016.5
2020-09-21T03:11:00+09:00,0.6,�k��,1.8,�k,16.8,85.2,0,0,0,0,0,0,1002.7,1016.5
2020-09-21T03:12:00+09:00,0.6,�k��,1.8,�k,16.7,85.5,0,0,0,0,0,0,1002.8,1016.6
2020-09-21T03:13:00+09:00,0.6,�k��,1.8,�k,16.6,86.1,0,0,0,0,0,0,1002.8,1016.6
2020-09-21T03:14:00+09:00,0.5,�k��,1.5,�k��,16.6,86.6,0,0,0,0,0,0,1002.8,1016.6
2020-09-21T03:15:00+09:00,0.5,�k��,1.5,�k��,16.7,87.3,0,0,0,0,0,0,1002.9,1016.7
2020-09-21T03:16:00+09:00,0.5,�k��,1.5,�k��,16.7,87.5,0,0,0,0,0,0,1002.9,1016.7
2020-09-21T03:17:00+09:00,0.4,�k��,1.5,�k��,16.6,87.3,0,0,0,0,0,0,1002.9,1016.7
2020-09-21T03:18:00+09:00,0.4,�k��,1.5,�k��,16.7,87.4,0,0,0,0,0,0,1002.9,1016.7
2020-09-21T03:19:00+09:00,0.4,�k��,1.3,���k��,16.8,87.5,0,0,0,0,0,0,1002.9,1016.7
2020-09-21T03:20:00+09:00,0.3,�k�k��,0.8,��,16.7,87.3,0,0,0,0,0,0,1002.9,1016.7
2020-09-21T03:21:00+09:00,0.3,�k�k��,0.8,��,16.8,87.3,0,0,0,0,0,0,1002.9,1016.7
2020-09-21T03:22:00+09:00,0.4,�k�k��,1,���k��,16.9,87.3,0,0,0,0,0,0,1002.9,1016.7
2020-09-21T03:23:00+09:00,0.4,�k�k��,1.2,�k��,16.8,86.8,0,0,0,0,0,0,1002.9,1016.7
2020-09-21T03:24:00+09:00,0.4,�k�k��,1.2,�k��,16.8,86.7,0,0,0,0,0,0,1002.9,1016.7
2020-09-21T03:25:00+09:00,0.5,�k�k��,1.2,�k��,16.8,86.6,0,0,0,0,0,0,1002.9,1016.7
2020-09-21T03:26:00+09:00,0.5,�k�k��,1.2,�k��,16.8,86.7,0,0,0,0,0,0,1002.9,1016.7
2020-09-21T03:27:00+09:00,0.6,�k�k��,1.5,�k��,16.8,86.2,0,0,0,0,0,0,1002.9,1016.7
2020-09-21T03:28:00+09:00,0.7,�k�k��,1.5,�k��,16.8,86.6,0,0,0,0,0,0,1002.9,1016.7
2020-09-21T03:29:00+09:00,0.8,�k��,1.6,�k��,16.8,86.5,0,0,0,0,0,0,1003,1016.8
2020-09-21T03:30:00+09:00,0.9,�k��,1.6,�k��,16.7,86.3,0,0,0,0,0,0,1003,1016.8
2020-09-21T03:31:00+09:00,0.9,�k��,1.6,�k��,16.7,86.5,0,0,0,0,0,0,1003,1016.8
2020-09-21T03:32:00+09:00,0.9,�k��,1.7,�k,16.6,86.6,0,0,0,0,0,0,1003,1016.8
2020-09-21T03:33:00+09:00,0.9,�k�k��,1.7,�k,16.7,87.2,0,0,0,0,0,0,1002.9,1016.7
2020-09-21T03:34:00+09:00,0.9,�k�k��,1.7,�k,16.8,87.4,0,0,0,0,0,0,1003,1016.8
2020-09-21T03:35:00+09:00,1,�k��,1.7,�k,16.6,86.7,0,0,0,0,0,0,1003,1016.8
2020-09-21T03:36:00+09:00,1.1,�k��,2,���k��,16.6,86.6,0,0,0,0,0,0,1003,1016.8
2020-09-21T03:37:00+09:00,1.1,�k��,2,���k��,16.8,87.2,0,0,0,0,0,0,1003,1016.8
2020-09-21T03:38:00+09:00,1.1,�k��,2,���k��,16.8,87.1,0,0,0,0,0,0,1003,1016.8
2020-09-21T03:39:00+09:00,1.2,�k��,2,���k��,16.9,87,0,0,0,0,0,0,1003,1016.8
2020-09-21T03:40:00+09:00,1.1,�k��,2,���k��,16.8,86.5,0,0,0,0,0,0,1003,1016.8
2020-09-21T03:41:00+09:00,1.2,���k��,2,���k��,16.4,85.4,0,0,0,0,0,0,1003,1016.8
2020-09-21T03:42:00+09:00,1.1,���k��,2,���k��,16.2,85.7,0,0,0,0,0,0,1003,1016.8
2020-09-21T03:43:00+09:00,1.1,��,2,���k��,16.1,86.9,0,0,0,0,0,0,1003,1016.8
2020-09-21T03:44:00+09:00,1.1,��,2,���k��,16.2,88.2,0,0,0,0,0,0,1003,1016.8
2020-09-21T03:45:00+09:00,0.9,��,2,���k��,16.4,88.7,0,0,0,0,0,0,1003,1016.8
2020-09-21T03:46:00+09:00,0.8,���k��,1.9,��,16.5,88.8,0,0,0,0,0,0,1003,1016.8
2020-09-21T03:47:00+09:00,0.8,���k��,1.9,��,16.6,88.6,0,0,0,0,0,0,1003,1016.8
2020-09-21T03:48:00+09:00,0.7,�k�k��,1.8,�k�k��,16.7,87.9,0,0,0,0,0,0,1003,1016.8
2020-09-21T03:49:00+09:00,0.6,�k,1.8,�k�k��,16.5,86.8,0,0,0,0,0,0,1003,1016.8
2020-09-21T03:50:00+09:00,0.5,�k��,1.8,�k�k��,16.5,86.6,0,0,0,0,0,0,1003,1016.8
2020-09-21T03:51:00+09:00,0.5,�k��,1.8,�k�k��,16.4,86.4,0,0,0,0,0,0,1002.9,1016.7
2020-09-21T03:52:00+09:00,0.5,�k��,1.8,�k�k��,16.5,87,0,0,0,0,0,0,1002.9,1016.7
2020-09-21T03:53:00+09:00,0.4,�k��,1.8,�k�k��,16.5,87.1,0,0,0,0,0,0,1002.9,1016.7
2020-09-21T03:54:00+09:00,0.4,�k��,1.8,�k�k��,16.4,86.8,0,0,0,0,0,0,1002.9,1016.7
2020-09-21T03:55:00+09:00,0.4,���k��,1.8,�k�k��,16.4,87.1,0,0,0,0,0,0,1003,1016.8
2020-09-21T03:56:00+09:00,0.4,���k��,1.8,�k�k��,16.6,87,0,0,0,0,0,0,1003,1016.8
2020-09-21T03:57:00+09:00,0.4,���k��,1.4,��,16.5,86.9,0,0,0,0,0,0,1003,1016.8
2020-09-21T03:58:00+09:00,0.4,���k��,1.4,��,16.7,87.2,0,0,0,0,0,0,1003,1016.8
2020-09-21T03:59:00+09:00,0.5,���k��,1.6,���k��,16.5,86.8,0,0,0,0,0,0,1003,1016.8
2020-09-21T04:00:00+09:00,0.5,���k��,1.6,���k��,16.7,86.7,0,0,0,0,0,0,1003,1016.8
2020-09-21T04:01:00+09:00,0.6,���k��,2.3,�k��,16.6,86.6,0,0,0,0,0,0,1003,1016.8
2020-09-21T04:02:00+09:00,0.7,�k��,2.3,�k��,16.6,86.5,0,0,0,0,0,0,1003,1016.8
2020-09-21T04:03:00+09:00,0.9,�k��,2.3,�k��,16.7,86.3,0,0,0,0,0,0,1002.9,1016.7
2020-09-21T04:04:00+09:00,1,�k��,2.4,�k��,16.8,86.3,0,0,0,0,0,0,1002.9,1016.7
2020-09-21T04:05:00+09:00,1.2,�k��,2.4,�k��,16.7,86.1,0,0,0,0,0,0,1002.9,1016.7
2020-09-21T04:06:00+09:00,1.3,�k�k��,2.6,�k�k��,16.6,85.4,0,0,0,0,0,0,1002.9,1016.7
2020-09-21T04:07:00+09:00,1.5,�k�k��,3,�k�k��,16.7,85.7,0,0,0,0,0,0,1002.9,1016.7
2020-09-21T04:08:00+09:00,1.6,�k�k��,3,�k�k��,16.8,86.1,0,0,0,0,0,0,1002.9,1016.7
2020-09-21T04:09:00+09:00,1.7,�k�k��,3,�k�k��,16.8,85.6,0,0,0,0,0,0,1002.9,1016.7
2020-09-21T04:10:00+09:00,1.9,�k�k��,3,�k�k��,16.6,85.1,0,0,0,0,0,0,1002.9,1016.7
2020-09-21T04:11:00+09:00,1.9,�k�k��,3,�k�k��,16.6,85.1,0,0,0,0,0,0,1002.9,1016.7
2020-09-21T04:12:00+09:00,1.9,�k�k��,3,�k�k��,16.6,85.6,0,0,0,0,0,0,1002.8,1016.6
2020-09-21T04:13:00+09:00,1.9,�k�k��,3,�k�k��,16.5,85.5,0,0,0,0,0,0,1002.8,1016.6
2020-09-21T04:14:00+09:00,1.8,�k�k��,3,�k�k��,16.5,85.7,0,0,0,0,0,0,1002.8,1016.6
2020-09-21T04:15:00+09:00,1.8,�k�k��,3,�k�k��,16.5,86,0,0,0,0,0,0,1002.9,1016.7
2020-09-21T04:16:00+09:00,1.7,�k�k��,3,�k�k��,16.4,86.2,0,0,0,0,0,0,1002.9,1016.7
2020-09-21T04:17:00+09:00,1.5,�k�k��,3,�k�k��,16.3,86.1,0,0,0,0,0,0,1003,1016.8
2020-09-21T04:18:00+09:00,1.4,�k�k��,3,�k�k��,16.3,86.5,0,0,0,0,0,0,1003,1016.8
2020-09-21T04:19:00+09:00,1.2,�k�k��,2.5,�k��,16.3,86.8,0,0,0,0,0,0,1003,1016.8
2020-09-21T04:20:00+09:00,1.1,�k�k��,2.3,�k�k��,16.4,87.3,0,0,0,0,0,0,1003.1,1016.9
2020-09-21T04:21:00+09:00,1,�k,2.3,�k�k��,16.5,87.5,0,0,0,0,0,0,1003.1,1016.9
2020-09-21T04:22:00+09:00,0.9,�k,2.2,�k�k��,16.3,86.8,0,0,0,0,0,0,1003.1,1016.9
2020-09-21T04:23:00+09:00,0.7,�k,2.2,�k�k��,16.2,86.8,0,0,0,0,0,0,1003.1,1016.9
2020-09-21T04:24:00+09:00,0.6,�k,1.6,�k�k��,16.2,87.2,0,0,0,0,0,0,1003.1,1016.9
2020-09-21T04:25:00+09:00,0.6,�k�k��,1.4,�k�k��,16.3,87.4,0,0,0,0,0,0,1003.1,1016.9
2020-09-21T04:26:00+09:00,0.5,�k�k��,1.2,�k�k��,16.3,87.9,0,0,0,0,0,0,1003.1,1016.9
2020-09-21T04:27:00+09:00,0.5,�k�k��,1.5,�k,16.3,87.8,0,0,0,0,0,0,1003.1,1016.9
2020-09-21T04:28:00+09:00,0.5,�k�k��,1.5,�k,16.2,87.5,0,0,0,0,0,0,1003.1,1016.9
2020-09-21T04:29:00+09:00,0.6,�k�k��,1.6,�k��,16.2,87.6,0,0,0,0,0,0,1003.1,1016.9
2020-09-21T04:30:00+09:00,0.7,�k�k��,1.6,�k��,16.3,87.7,0,0,0,0,0,0,1003.1,1016.9
2020-09-21T04:31:00+09:00,0.7,�k,1.6,�k��,16.3,87.9,0,0,0,0,0,0,1003.1,1016.9
2020-09-21T04:32:00+09:00,0.8,�k,1.9,�k��,16.3,87.5,0,0,0,0,0,0,1003.1,1016.9
2020-09-21T04:33:00+09:00,0.8,�k,1.9,�k��,16.4,87.8,0,0,0,0,0,0,1003.1,1016.9
2020-09-21T04:34:00+09:00,0.8,�k,1.9,�k��,16.5,87.8,0,0,0,0,0,0,1003.1,1016.9
2020-09-21T04:35:00+09:00,0.8,�k,1.9,�k��,16.3,86.6,0,0,0,0,0,0,1003.2,1017
2020-09-21T04:36:00+09:00,0.9,�k,1.9,�k��,16.3,86.7,0,0,0,0,0,0,1003.2,1017
2020-09-21T04:37:00+09:00,0.8,�k,1.9,�k��,16.2,86.6,0,0,0,0,0,0,1003.1,1016.9
2020-09-21T04:38:00+09:00,0.8,�k�k��,1.9,�k��,16.2,86.9,0,0,0,0,0,0,1003.2,1017
2020-09-21T04:39:00+09:00,0.8,�k�k��,1.9,�k��,16.2,87.3,0,0,0,0,0,0,1003.2,1017
2020-09-21T04:40:00+09:00,0.8,�k�k��,1.9,�k��,16.2,87.5,0,0,0,0,0,0,1003.2,1017
2020-09-21T04:41:00+09:00,0.7,�k��,1.9,�k��,16.2,87.8,0,0,0,0,0,0,1003.3,1017.1
2020-09-21T04:42:00+09:00,0.7,�k��,1.4,���k��,16.1,87.8,0,0,0,0,0,0,1003.3,1017.1
2020-09-21T04:43:00+09:00,0.8,�k��,1.4,���k��,16.1,88.1,0,0,0,0,0,0,1003.3,1017.1
2020-09-21T04:44:00+09:00,0.9,�k��,1.4,���k��,16.1,87.8,0,0,0,0,0,0,1003.3,1017.1
2020-09-21T04:45:00+09:00,0.9,�k��,1.4,���k��,16,87.8,0,0,0,0,0,0,1003.3,1017.1
2020-09-21T04:46:00+09:00,0.9,�k��,1.4,���k��,16,88.1,0,0,0,0,0,0,1003.4,1017.2
2020-09-21T04:47:00+09:00,0.8,�k��,1.4,���k��,16.1,88.4,0,0,0,0,0,0,1003.4,1017.2
2020-09-21T04:48:00+09:00,0.8,�k��,1.4,���k��,16.1,88.5,0,0,0,0,0,0,1003.4,1017.2
2020-09-21T04:49:00+09:00,0.8,�k��,1.4,���k��,16.1,88.7,0,0,0,0,0,0,1003.4,1017.2
2020-09-21T04:50:00+09:00,0.8,�k��,1.4,���k��,16.1,88.4,0,0,0,0,0,0,1003.4,1017.2
2020-09-21T04:51:00+09:00,0.8,�k��,1.4,���k��,16.2,88.7,0,0,0,0,0,0,1003.4,1017.2
2020-09-21T04:52:00+09:00,0.8,�k��,1.4,�k��,16.2,88.6,0,0,0,0,0,0,1003.4,1017.2
2020-09-21T04:53:00+09:00,0.8,�k��,1.4,�k��,16.2,88.2,0,0,0,0,0,0,1003.4,1017.2
2020-09-21T04:54:00+09:00,0.8,�k��,1.4,�k��,16.1,88.2,0,0,0,0,0,0,1003.4,1017.2
2020-09-21T04:55:00+09:00,0.7,�k��,1.4,�k��,16.1,88.2,0,0,0,0,0,0,1003.4,1017.2
2020-09-21T04:56:00+09:00,0.8,�k��,1.4,�k��,16.2,88.5,0,0,0,0,0,0,1003.4,1017.2